Theta_e
284 284 284 284 284 285 284 284 285 284 284 284 284 284 284 285 285 284 284 284 284 284 284 285 285 285 286 285 286 286 286 286 286 287 286 286 285 284 285 284 283 283
284 285 285 285 285 285 285 285 285 285 284 284 284 285 285 285 285 285 285 284 284 284 284 285 284 284 284 284 285 284 284 285 284 287 286 286 286 286 285 285 284 284
285 285 285 284 284 284 285 285 285 285 284 284 284 285 285 285 285 284 284 284 284 284 284 284 284 284 284 284 284 284 284 284 284 285 285 285 285 285 286 285 285 285
284 284 284 284 284 283 284 284 284 284 284 284 283 284 284 284 284 283 283 283 283 283 283 283 283 283 283 283 283 283 283 283 284 284 284 284 284 285 285 285 285 285
283 283 282 283 283 283 283 283 283 283 283 283 283 283 283 282 282 282 282 282 282 282 282 282 282 282 282 282 282 282 282 283 283 283 283 283 284 284 285 285 285 285
283 283 282 282 281 281 281 281 282 282 282 282 282 282 281 281 282 282 282 281 281 281 281 281 281 281 281 281 281 281 281 282 282 282 282 282 282 283 284 284 284 283
281 281 282 282 282 282 282 281 281 281 281 281 281 281 281 281 281 281 281 281 281 281 281 280 280 280 280 280 280 280 280 280 281 281 281 281 281 281 282 282 282 283
280 281 281 281 281 281 281 281 280 280 280 280 280 280 280 280 280 280 281 280 280 280 280 280 280 280 280 280 279 279 279 280 280 280 279 279 280 280 281 282 282 281
280 279 279 279 279 280 280 280 280 280 280 279 279 279 279 279 279 279 279 279 279 279 279 279 279 279 279 279 279 278 278 278 279 278 278 278 278 279 279 280 280 280
279 279 279 279 279 279 279 279 279 279 280 279 279 279 279 279 279 279 278 278 278 278 278 278 278 278 278 278 278 278 278 278 278 278 278 278 278 278 278 279 279 279
277 277 277 277 277 277 277 278 278 278 278 278 278 277 277 277 277 278 277 277 277 277 276 277 277 277 277 277 278 278 278 278 278 278 278 278 278 278 280 278 278 278
276 276 276 276 276 276 276 276 276 276 275 275 276 275 275 275 275 275 276 275 275 275 276 276 276 276 276 276 276 277 277 277 277 277 277 278 278 278 278 278 278 278
275 275 275 275 275 275 275 275 274 273 273 273 273 273 272 273 273 273 273 274 274 274 274 274 274 275 275 275 275 276 276 276 276 277 277 277 278 278 278 278 278 278
274 274 274 274 274 274 274 273 272 271 271 271 271 271 271 271 271 271 271 272 272 272 272 272 272 272 272 273 273 274 274 275 275 275 276 276 277 277 278 278 278 278
273 273 273 272 272 271 271 270 270 270 269 269 269 269 270 269 270 270 269 269 270 270 269 270 270 270 271 271 272 273 274 273 274 274 274 274 274 275 276 277 277 278
272 271 271 270 270 269 269 268 268 268 267 267 267 267 267 268 268 267 267 267 267 267 267 267 267 268 270 274 275 273 272 272 272 272 273 273 273 273 274 275 276 276
270 270 269 268 268 267 266 266 266 265 265 265 265 265 265 265 265 265 265 265 265 265 265 265 266 267 271 273 274 275 273 272 272 272 273 273 273 273 272 273 274 275
268 267 266 266 265 265 264 264 264 263 263 263 263 263 264 264 264 264 264 264 264 264 264 264 264 267 271 272 273 274 275 272 272 271 271 271 272 272 272 273 273 274
266 265 264 264 264 263 263 263 262 262 262 262 261 262 263 262 263 263 262 263 263 262 262 263 263 267 270 271 273 274 274 273 271 270 270 270 270 270 270 271 271 271
265 263 263 263 262 262 262 261 261 261 261 261 262 262 262 261 261 261 262 261 262 262 261 262 262 265 269 271 272 273 273 273 270 270 270 270 269 269 269 269 269 269
263 262 262 262 261 261 261 260 260 260 260 261 261 261 260 260 260 260 260 260 260 261 260 261 261 267 269 271 271 272 273 273 270 269 268 268 268 269 269 269 269 269
262 261 261 261 261 260 259 260 260 259 259 260 260 260 260 260 260 260 259 259 260 260 260 259 261 267 268 269 271 272 273 269 268 267 267 267 267 268 268 269 269 269
262 261 260 260 260 259 259 259 259 259 259 259 259 259 259 259 259 259 259 259 259 259 259 259 259 263 267 269 270 271 270 267 267 266 266 266 267 267 268 268 268 269
261 259 259 259 258 258 258 259 259 259 258 259 258 258 258 258 258 258 258 259 258 258 259 258 259 262 267 269 270 270 270 267 266 266 266 266 266 267 268 268 268 270
259 259 259 258 258 258 258 258 258 258 258 258 258 258 258 258 258 258 258 258 258 258 260 260 259 261 266 268 269 270 269 267 267 266 266 266 266 266 267 267 267 269
258 258 258 257 258 258 257 257 258 257 258 258 257 257 257 257 257 257 257 257 258 258 258 259 259 259 261 267 269 270 271 268 267 266 265 265 266 266 266 267 267 268
Wind_Speed
7 7 7 7 6 6 6 7 6 7 6 6 6 6 6 6 7 8 8 8 7 7 8 8 8 9 8 8 8 7 6 6 6 6 6 5 4 3 4 4 4 3
7 6 6 6 5 5 5 5 5 6 6 5 5 5 5 5 6 6 7 8 9 9 8 8 8 7 7 7 8 8 8 7 8 4 7 7 6 5 5 4 4 3
5 5 5 6 5 5 4 4 4 4 4 4 3 4 4 3 5 5 5 6 7 8 8 8 8 8 8 7 7 6 7 8 8 7 6 7 6 6 6 5 5 4
4 4 4 4 4 4 3 4 4 4 4 5 5 5 4 4 5 6 6 6 6 7 7 7 7 7 7 7 7 7 7 6 6 6 7 7 6 6 7 6 6 6
3 3 3 3 3 3 3 5 6 5 6 5 5 6 6 6 6 6 6 6 6 7 7 7 6 6 6 7 6 7 8 7 7 6 7 8 7 6 6 6 7 7
3 3 3 3 3 4 6 6 6 7 8 8 8 7 7 7 8 8 8 8 7 7 7 6 7 7 6 6 6 6 7 8 8 8 8 8 8 7 6 6 7 8
6 7 7 6 7 7 7 7 8 8 8 7 7 8 8 9 9 8 8 9 9 9 9 8 8 8 7 6 6 8 7 7 8 9 10 9 8 9 6 6 7 8
7 6 6 7 7 7 8 7 7 8 8 9 9 9 9 11 12 12 11 12 12 12 12 11 10 10 9 7 8 9 8 6 8 9 9 10 9 10 9 7 8 9
6 6 6 6 7 6 6 6 6 5 5 6 6 7 6 6 7 7 9 9 9 10 10 11 12 12 11 11 11 10 11 10 8 8 9 10 10 11 10 9 10 10
7 6 7 6 6 5 6 6 6 5 5 5 5 5 6 6 5 6 5 7 7 8 9 9 10 10 9 8 9 9 10 11 10 10 10 9 10 10 10 9 10 12
7 7 7 7 7 6 7 7 7 6 6 7 8 8 8 8 8 7 8 7 8 8 9 9 9 9 10 10 10 9 10 11 11 10 10 11 11 10 10 10 11 11
6 6 6 6 5 6 6 6 7 7 8 8 8 10 10 9 9 9 9 11 10 10 10 10 10 10 10 10 10 9 9 9 10 10 11 12 12 12 11 10 11 11
5 5 4 4 5 5 6 6 7 8 8 9 9 9 10 10 10 10 10 10 10 10 11 11 11 11 11 11 10 10 11 12 12 12 11 10 10 12 12 11 11 11
4 4 3 4 4 4 5 5 5 6 6 6 6 7 7 7 9 9 9 8 9 9 9 10 11 11 10 9 10 11 12 12 13 13 13 12 12 11 10 11 11 12
2 2 3 3 3 3 3 4 5 5 5 6 6 6 6 7 7 8 10 10 8 9 10 9 9 9 8 8 10 11 11 12 13 13 13 13 13 13 12 12 11 11
2 2 3 3 4 5 5 6 6 7 7 6 7 6 7 7 8 9 8 10 10 10 9 8 8 6 11 20 18 14 13 12 12 12 13 13 13 14 13 13 11 12
3 4 4 5 6 6 5 6 9 7 7 6 6 6 8 8 8 9 8 9 9 10 10 9 8 8 19 21 22 23 16 13 13 13 12 11 11 12 13 13 13 11
4 5 5 5 5 5 6 6 6 6 7 7 7 8 7 6 8 8 9 9 8 9 10 10 9 14 21 22 22 23 20 16 15 14 14 14 13 13 12 12 12 12
5 5 5 5 6 6 6 6 7 7 7 8 8 6 6 6 8 8 8 8 9 10 10 10 10 16 21 23 23 23 23 20 14 14 14 15 15 15 14 12 11 11
6 5 5 5 5 6 6 7 7 7 7 6 7 7 7 7 6 8 7 8 9 10 11 11 10 15 22 23 23 24 24 21 15 16 15 15 15 15 14 13 13 12
4 4 5 5 5 6 6 6 6 7 7 7 6 7 8 8 9 9 8 8 9 9 10 11 10 20 22 24 23 24 24 21 14 14 13 14 14 14 15 15 15 14
4 4 5 5 7 6 6 7 7 6 7 7 6 7 6 6 7 6 9 10 9 10 11 12 11 20 23 23 24 23 25 15 13 13 13 13 13 13 14 13 13 14
4 4 5 6 6 7 8 7 8 8 6 5 8 7 8 8 8 8 8 10 11 10 11 12 11 16 22 23 24 25 20 12 13 12 12 12 13 13 13 14 13 13
5 4 5 6 6 7 8 8 7 6 6 5 7 9 9 8 8 9 8 8 10 11 10 13 12 15 23 23 24 23 20 14 11 11 12 12 13 13 12 12 14 22
3 4 5 6 7 7 7 8 8 8 7 6 7 7 9 8 8 9 9 8 8 11 15 16 13 15 21 23 24 23 18 12 10 10 12 12 12 12 12 12 14 16
3 4 5 6 8 8 7 7 7 7 7 7 7 6 8 8 8 8 11 10 9 10 10 10 12 12 14 24 23 23 23 15 10 10 10 12 12 12 12 12 12 12
Wind_Direction
57 55 59 58 56 53 49 47 39 42 37 30 29 14 15 0 1 7 3 6 6 5 2 0 0 1 359 358 360 353 358 349 348 347 342 339 337 329 314 309 306 268
55 56 57 58 55 46 44 45 41 41 31 28 19 8 1 3 1 4 1 358 359 358 356 357 357 356 355 355 351 352 346 350 345 349 341 338 332 324 310 298 280 277
65 66 64 63 62 56 51 41 46 37 36 14 8 9 353 351 349 355 356 356 354 351 350 350 349 350 349 347 346 344 340 337 339 336 338 330 324 323 309 308 299 282
66 68 69 67 63 56 48 44 32 31 17 16 10 356 357 345 349 351 350 354 353 348 345 344 342 339 340 340 340 339 332 325 317 322 324 319 321 317 311 310 298 301
65 55 50 54 54 49 40 37 24 14 12 1 353 357 358 353 351 350 348 348 352 344 343 340 336 334 332 333 335 331 330 325 325 328 322 317 313 316 308 311 306 304
40 41 52 35 43 38 29 29 18 11 4 3 358 352 354 351 351 349 348 346 345 342 337 336 334 333 335 329 328 327 325 327 324 325 319 315 312 311 309 304 301 298
18 15 5 11 13 19 21 14 11 6 2 354 347 357 353 351 349 348 345 343 340 340 339 337 336 332 335 329 328 325 325 319 318 321 320 316 313 308 305 303 297 293
13 12 12 11 15 14 15 10 7 4 354 355 355 345 355 347 347 345 345 343 343 340 338 337 335 333 333 335 330 326 321 320 320 319 316 312 312 306 307 303 297 295
31 23 16 20 17 13 9 4 2 354 350 354 341 338 343 342 334 334 331 332 332 331 332 333 333 332 334 334 330 327 322 319 317 312 308 306 306 302 304 305 301 296
32 18 17 11 10 2 2 356 357 354 349 355 340 338 341 337 335 327 326 327 325 325 327 325 325 323 321 320 316 316 314 311 311 307 301 296 292 293 296 297 295 298
21 14 9 2 359 357 354 353 354 354 355 354 348 347 348 340 338 342 333 333 332 327 325 323 321 322 320 319 318 316 312 308 306 303 300 296 293 289 287 289 289 286
14 6 359 352 352 351 352 353 355 359 353 353 352 345 343 343 340 341 341 333 334 331 328 326 325 325 321 317 314 311 305 300 296 294 295 294 293 291 289 286 285 285
6 351 342 348 354 352 355 359 1 356 352 347 347 343 339 339 340 337 335 330 328 329 328 327 326 324 323 319 317 318 315 310 305 300 294 290 285 285 286 284 282 281
352 330 351 356 351 4 358 358 352 344 340 336 336 336 333 337 335 330 328 330 324 325 326 326 320 317 316 316 315 314 309 305 304 302 301 298 296 291 288 285 284 283
331 340 6 355 0 355 347 346 339 333 334 334 333 334 337 332 331 332 327 323 322 324 322 319 316 314 316 318 313 308 305 302 302 300 298 297 295 292 289 287 285 284
351 7 9 356 354 350 351 344 340 341 341 340 341 341 338 334 336 333 326 328 326 323 326 321 316 314 317 317 316 311 308 304 298 293 291 290 291 292 290 289 288 289
18 12 1 357 355 350 348 347 344 344 341 339 341 341 337 338 336 329 334 329 325 325 324 320 315 314 318 318 316 313 310 304 300 296 290 285 283 287 291 296 294 289
13 5 358 351 352 350 345 342 338 339 338 336 335 335 335 333 329 328 326 324 321 321 317 313 312 311 315 313 311 310 309 305 301 299 299 297 297 296 295 295 296 297
8 4 352 349 347 344 337 337 337 333 334 334 330 326 322 324 322 322 317 319 317 316 313 310 306 309 309 308 307 307 306 304 297 296 295 295 295 296 296 297 302 305
2 356 346 339 336 334 333 331 331 327 324 319 315 321 320 316 314 312 313 313 313 311 307 306 301 304 306 305 306 305 305 303 297 296 295 295 297 298 299 301 302 301
353 343 334 329 329 326 325 321 319 316 317 317 318 317 319 316 318 316 312 310 308 306 302 301 299 303 305 305 305 304 303 303 300 299 297 296 296 296 296 298 299 298
343 331 327 326 322 321 319 315 314 310 313 314 309 305 297 301 301 302 305 308 305 303 301 297 298 305 305 304 303 303 305 304 303 299 296 294 294 297 296 296 297 297
332 327 321 318 317 315 312 311 313 313 310 310 306 303 306 306 302 303 304 303 303 300 298 296 295 303 304 304 304 305 308 302 298 295 294 295 294 295 294 294 293 294
324 319 310 309 309 305 305 305 305 301 301 310 306 308 305 302 302 301 296 294 296 296 295 295 295 301 304 303 305 305 305 302 300 295 292 292 293 290 292 291 293 295
307 305 300 300 298 297 299 301 303 301 301 301 293 294 294 300 299 296 294 290 285 287 293 294 293 298 300 302 303 305 304 294 289 284 289 293 294 293 290 290 289 287
296 297 293 293 293 295 296 292 294 299 297 297 295 290 294 296 293 291 292 292 289 288 287 286 289 289 293 299 303 303 303 299 289 289 287 286 284 283 282 274 268 266